Location: Unspecified
(0.0000°N, 0.0000°E)
Time: 18:48:58
(UTC+00:00)

Explorer 11/Cluster Stage 4 - Pass Details

Date: 20 November 2019
Orbit: 467 x 1259 km, 28.8° (Epoch: 05 December)

Event Time Altitude Azimuth Distance (km) Brightness Sun altitude
Exits shadow 04:59:29 10° 269° (W) 3,134 9.1 -10.8°
Maximum altitude 05:06:07 30° 211° (SSW) 1,883 8.4 -9.3°
Drops below altitude 10° 05:12:04 10° 152° (SSE) 2,764 10.1 -7.9°
Sets 05:14:53 0° 141° (SE) 3,584 11.1 -7.2°
